sat.trackr.live / text

‹ back to catalog

STARLINK-3915

NORAD 52581 · 2022-051AX

PAYLOAD ACTIVE UNKNOWN

§ Identity

Operator
Country
US
Launch date
2022-05-13
Launch site
AFWTR
Launch vehicle
Mass (kg)
RCS (m²)

Purposes: comms

External: N2YO · Heavens-Above · Gunter

§ Orbital elements

Epoch: 2026-05-25T02:45:57.078144Z

Period
95.44 min
Inclination
53.2142°
Eccentricity
0.0001257
Mean motion
15.08850172 rev/d
Perigee alt
538.8 km
Apogee alt
540.6 km
Semi-major
6,917.8 km
B*
1.5521e-4
RAAN
136.0322°
Arg perigee
89.1165°
Mean anomaly
270.9971°
Rev number
22,312

§ Raw data

STARLINK-39151 52581U 22051AX  26145.11524396  .00002184  00000+0  15521-3 0  99912 52581  53.2142 136.0322 0001257  89.1165 270.9971 15.08850172223124

JSON: /api/v1/satellites/52581 · /tle

For live sub-satellite position, see the globe view (requires WebGL).

§ Visibility from observer

Set your observer location to see the next 7 days of passes ≥ 10°. The values pass through the URL so the page stays shareable.

No JS? Fill the form by hand. The geolocation button needs JavaScript.